Time,TemperatureF,DewpointF,PressureIn,WindDirection,WindDirectionDegrees,WindSpeedMPH,WindSpeedGustMPH,Humidity,HourlyPrecipIn,Conditions,Clouds,dailyrainin,SolarRadiationWatts/m^2,SoftwareType,DateUTC
2013-05-08 00:03:00,67.6,63.0,30.03,SE,135,0.0,0.0,85,0.00,SCT,BKN,0.00,0.0,WeatherDisplay:10.37,2013-05-08 10:03:00,
2013-05-08 00:08:00,67.6,63.0,30.03,SE,135,0.0,0.0,85,0.00,SCT,BKN,0.00,0.0,WeatherDisplay:10.37,2013-05-08 10:08:00,
2013-05-08 00:13:00,67.6,63.3,30.03,SE,135,0.0,0.0,86,0.00,SCT,BKN,0.00,0.0,WeatherDisplay:10.37,2013-05-08 10:13:00,
2013-05-08 00:18:00,67.5,62.8,30.03,SE,135,0.0,0.0,85,0.00,SCT,BKN,0.00,0.0,WeatherDisplay:10.37,2013-05-08 10:18:00,
2013-05-08 00:23:00,67.5,63.1,30.03,SE,135,0.0,0.0,86,0.00,SCT,BKN,0.00,0.0,WeatherDisplay:10.37,2013-05-08 10:23:00,
2013-05-08 00:28:00,67.6,63.3,30.03,SE,135,0.0,0.0,86,0.00,SCT,BKN,0.00,0.0,WeatherDisplay:10.37,2013-05-08 10:28:00,
2013-05-08 00:33:00,67.8,63.5,30.03,SE,135,0.0,1.2,86,0.00,SCT,BKN,0.00,0.0,WeatherDisplay:10.37,2013-05-08 10:33:00,
2013-05-08 00:38:00,68.0,63.3,30.03,SE,135,0.0,0.0,85,0.00,SCT,BKN,0.00,0.0,WeatherDisplay:10.37,2013-05-08 10:38:00,
2013-05-08 00:43:00,68.2,63.5,30.03,SE,135,0.0,0.0,85,0.00,SCT,BKN,0.00,0.0,WeatherDisplay:10.37,2013-05-08 10:43:00,
2013-05-08 00:48:00,68.4,63.3,30.03,SE,135,0.0,0.0,84,0.00,SCT,BKN,0.00,0.0,WeatherDisplay:10.37,2013-05-08 10:48:00,
2013-05-08 00:53:00,68.4,63.3,30.03,SE,135,0.0,0.0,84,0.00,SCT,BKN,0.00,0.0,WeatherDisplay:10.37,2013-05-08 10:53:00,
2013-05-08 00:58:00,68.5,63.5,30.03,SE,135,0.0,0.0,84,0.00,SCT,BKN,0.00,0.0,WeatherDisplay:10.37,2013-05-08 10:58:00,
2013-05-08 01:03:00,68.5,63.5,30.03,SE,135,0.0,0.0,84,0.00,SCT,BKN,0.00,0.0,WeatherDisplay:10.37,2013-05-08 11:03:00,
2013-05-08 01:08:00,68.7,63.3,30.03,SE,135,0.0,0.0,83,0.00,SCT,BKN,0.00,0.0,WeatherDisplay:10.37,2013-05-08 11:08:00,
2013-05-08 01:13:00,68.9,63.5,30.00,SE,135,0.0,0.0,83,0.00,SCT,BKN,0.00,0.0,WeatherDisplay:10.37,2013-05-08 11:13:00,
2013-05-08 01:18:00,68.9,63.2,30.00,SE,135,0.0,0.0,82,0.00,SCT,BKN,0.00,0.0,WeatherDisplay:10.37,2013-05-08 11:18:00,
2013-05-08 01:23:00,68.9,63.2,30.00,SE,135,0.0,0.0,82,0.00,SCT,BKN,0.00,0.0,WeatherDisplay:10.37,2013-05-08 11:23:00,
2013-05-08 01:28:00,68.9,63.2,30.00,SE,135,0.0,0.0,82,0.00,SCT,BKN,0.00,0.0,WeatherDisplay:10.37,2013-05-08 11:28:00,
2013-05-08 01:33:00,68.7,63.0,30.00,SE,135,0.0,0.0,82,0.00,SCT,BKN,0.00,0.0,WeatherDisplay:10.37,2013-05-08 11:33:00,
2013-05-08 01:38:00,68.5,62.8,30.00,SE,135,0.0,0.0,82,0.00,SCT,BKN,0.00,0.0,WeatherDisplay:10.37,2013-05-08 11:38:00,
2013-05-08 01:43:00,68.4,62.6,30.00,SE,135,0.0,0.0,82,0.00,SCT,BKN,0.00,0.0,WeatherDisplay:10.37,2013-05-08 11:43:00,
2013-05-08 01:48:00,68.4,62.6,30.00,SE,135,0.9,1.4,82,0.00,SCT,BKN,0.00,0.0,WeatherDisplay:10.37,2013-05-08 11:48:00,
2013-05-08 01:53:00,68.2,62.5,30.00,SE,135,0.0,0.0,82,0.00,SCT,BKN,0.00,0.0,WeatherDisplay:10.37,2013-05-08 11:53:00,
2013-05-08 01:58:00,68.0,62.3,30.00,SE,135,0.0,0.0,82,0.00,SCT,BKN,0.00,0.0,WeatherDisplay:10.37,2013-05-08 11:58:00,
2013-05-08 02:03:00,68.0,62.6,30.00,SE,135,0.0,0.0,83,0.00,SCT,BKN,0.00,0.0,WeatherDisplay:10.37,2013-05-08 12:03:00,
2013-05-08 02:08:00,68.0,63.0,30.00,SE,135,0.0,0.0,84,0.00,SCT,BKN,0.00,0.0,WeatherDisplay:10.37,2013-05-08 12:08:00,
2013-05-08 02:13:00,68.0,63.0,30.00,SE,135,0.0,0.0,84,0.00,SCT,BKN,0.00,0.0,WeatherDisplay:10.37,2013-05-08 12:13:00,
2013-05-08 02:18:00,68.2,63.2,30.00,SE,135,0.0,0.0,84,0.00,SCT,BKN,0.00,0.0,WeatherDisplay:10.37,2013-05-08 12:18:00,
2013-05-08 02:23:00,68.4,63.3,30.00,SE,135,0.0,0.0,84,0.00,SCT,BKN,0.00,0.0,WeatherDisplay:10.37,2013-05-08 12:23:00,
2013-05-08 02:28:00,68.5,63.5,30.00,SE,135,0.0,0.0,84,0.00,SCT,BKN,0.00,0.0,WeatherDisplay:10.37,2013-05-08 12:28:00,
2013-05-08 02:33:00,68.7,63.7,30.00,SE,135,0.0,0.0,84,0.00,SCT,BKN,0.00,0.0,WeatherDisplay:10.37,2013-05-08 12:33:00,
2013-05-08 02:38:00,68.7,63.7,30.00,SE,135,0.0,0.0,84,0.00,SCT,BKN,0.00,0.0,WeatherDisplay:10.37,2013-05-08 12:38:00,
2013-05-08 02:43:00,68.5,63.2,30.00,SE,135,0.0,0.0,83,0.00,SCT,BKN,0.00,0.0,WeatherDisplay:10.37,2013-05-08 12:43:00,
2013-05-08 02:48:00,68.5,63.2,30.00,SE,135,0.0,0.0,83,0.00,SCT,BKN,0.00,0.0,WeatherDisplay:10.37,2013-05-08 12:48:00,
2013-05-08 02:53:00,68.5,62.8,30.00,SE,135,0.0,0.0,82,0.00,SCT,BKN,0.00,0.0,WeatherDisplay:10.37,2013-05-08 12:53:00,
2013-05-08 02:58:00,68.4,63.0,30.00,SE,135,0.0,0.0,83,0.00,SCT,BKN,0.00,0.0,WeatherDisplay:10.37,2013-05-08 12:58:00,
2013-05-08 03:03:00,68.4,63.0,30.00,SE,135,0.0,0.0,83,0.00,SCT,BKN,0.00,0.0,WeatherDisplay:10.37,2013-05-08 13:03:00,
2013-05-08 03:08:00,68.2,62.8,30.00,SE,135,0.0,0.0,83,0.00,SCT,BKN,0.00,0.0,WeatherDisplay:10.37,2013-05-08 13:08:00,
2013-05-08 03:13:00,68.0,63.0,30.00,SE,135,0.0,0.0,84,0.00,SCT,BKN,0.00,0.0,WeatherDisplay:10.37,2013-05-08 13:13:00,
2013-05-08 03:18:00,67.8,62.8,30.00,SE,135,0.0,0.0,84,0.00,SCT,BKN,0.00,0.0,WeatherDisplay:10.37,2013-05-08 13:18:00,
2013-05-08 03:23:00,67.6,62.6,30.00,SE,135,0.0,0.0,84,0.00,SCT,BKN,0.00,0.0,WeatherDisplay:10.37,2013-05-08 13:23:00,
2013-05-08 03:28:00,67.5,62.8,30.00,SE,135,0.0,0.0,85,0.00,SCT,BKN,0.00,0.0,WeatherDisplay:10.37,2013-05-08 13:28:00,
2013-05-08 03:33:00,67.5,63.1,30.00,SE,135,0.0,0.0,86,0.00,SCT,BKN,0.00,0.0,WeatherDisplay:10.37,2013-05-08 13:33:00,
2013-05-08 03:38:00,67.5,63.5,30.00,SE,135,0.0,0.0,87,0.00,SCT,BKN,0.00,0.0,WeatherDisplay:10.37,2013-05-08 13:38:00,
2013-05-08 03:43:00,67.3,63.3,30.00,SE,135,0.0,0.0,87,0.00,SCT,BKN,0.00,0.0,WeatherDisplay:10.37,2013-05-08 13:43:00,
2013-05-08 03:48:00,67.1,63.4,30.00,SE,135,0.0,0.0,88,0.00,SCT,BKN,0.00,0.0,WeatherDisplay:10.37,2013-05-08 13:48:00,
2013-05-08 03:53:00,67.1,63.4,30.00,SE,135,0.0,0.0,88,0.00,SCT,BKN,0.00,0.0,WeatherDisplay:10.37,2013-05-08 13:53:00,
2013-05-08 03:58:00,67.1,63.4,30.00,SE,135,0.0,0.0,88,0.00,SCT,BKN,0.00,0.0,WeatherDisplay:10.37,2013-05-08 13:58:00,
2013-05-08 04:03:00,67.3,63.9,30.00,SE,135,0.0,0.0,89,0.00,SCT,BKN,0.00,0.0,WeatherDisplay:10.37,2013-05-08 14:03:00,
2013-05-08 04:08:00,67.1,63.4,30.00,SE,135,0.0,0.0,88,0.00,SCT,BKN,0.00,0.0,WeatherDisplay:10.37,2013-05-08 14:08:00,
2013-05-08 04:13:00,67.1,63.7,29.97,SE,135,0.0,0.0,89,0.00,SCT,BKN,0.00,0.0,WeatherDisplay:10.37,2013-05-08 14:13:00,
2013-05-08 04:18:00,66.9,63.6,29.97,SE,135,0.0,0.0,89,0.00,SCT,BKN,0.00,0.0,WeatherDisplay:10.37,2013-05-08 14:18:00,
2013-05-08 04:23:00,66.9,63.6,29.97,SE,135,0.0,0.0,89,0.00,SCT,BKN,0.00,0.0,WeatherDisplay:10.37,2013-05-08 14:23:00,
2013-05-08 04:28:00,66.9,63.2,30.00,SE,135,1.2,1.2,88,0.00,SCT,BKN,0.00,0.0,WeatherDisplay:10.37,2013-05-08 14:28:00,
2013-05-08 04:33:00,66.9,63.2,30.00,SE,135,1.4,1.4,88,0.00,SCT,BKN,0.00,0.0,WeatherDisplay:10.37,2013-05-08 14:33:00,
2013-05-08 04:38:00,66.9,62.9,30.00,SE,135,0.0,0.0,87,0.00,SCT,BKN,0.00,0.0,WeatherDisplay:10.37,2013-05-08 14:38:00,
2013-05-08 04:43:00,66.9,62.9,30.00,SE,135,0.0,0.0,87,0.00,SCT,BKN,0.00,0.0,WeatherDisplay:10.37,2013-05-08 14:43:00,
2013-05-08 04:48:00,67.1,63.1,30.00,SE,135,0.0,0.0,87,0.00,SCT,BKN,0.00,0.0,WeatherDisplay:10.37,2013-05-08 14:48:00,
2013-05-08 04:53:00,67.1,63.1,30.00,SE,135,0.0,0.0,87,0.00,SCT,BKN,0.00,0.0,WeatherDisplay:10.37,2013-05-08 14:53:00,
2013-05-08 04:58:00,67.1,63.1,30.00,SE,135,0.0,0.0,87,0.00,SCT,BKN,0.00,0.0,WeatherDisplay:10.37,2013-05-08 14:58:00,
2013-05-08 05:03:00,67.1,63.1,30.00,SE,135,0.0,0.0,87,0.00,SCT,BKN,0.00,0.0,WeatherDisplay:10.37,2013-05-08 15:03:00,
2013-05-08 05:08:00,67.1,62.8,30.00,SE,135,0.0,0.0,86,0.00,SCT,BKN,0.00,0.0,WeatherDisplay:10.37,2013-05-08 15:08:00,
2013-05-08 05:13:00,67.3,62.9,30.00,SE,135,0.0,0.0,86,0.00,SCT,BKN,0.00,0.0,WeatherDisplay:10.37,2013-05-08 15:13:00,
2013-05-08 05:18:00,67.3,62.9,30.00,SE,135,0.0,0.0,86,0.00,SCT,BKN,0.00,0.0,WeatherDisplay:10.37,2013-05-08 15:18:00,
2013-05-08 05:23:00,67.3,63.3,30.00,SE,135,0.0,0.0,87,0.00,SCT,BKN,0.00,0.0,WeatherDisplay:10.37,2013-05-08 15:23:00,
2013-05-08 05:28:00,67.3,62.9,30.00,SE,135,0.0,0.0,86,0.00,SCT,BKN,0.00,0.0,WeatherDisplay:10.37,2013-05-08 15:28:00,
2013-05-08 05:33:00,67.3,62.9,30.00,SE,135,0.0,0.0,86,0.00,SCT,BKN,0.00,0.0,WeatherDisplay:10.37,2013-05-08 15:33:00,
2013-05-08 05:38:00,67.5,63.1,30.00,SE,135,0.0,0.0,86,0.00,SCT,BKN,0.00,0.0,WeatherDisplay:10.37,2013-05-08 15:38:00,
2013-05-08 05:43:00,67.3,62.9,30.00,SE,135,0.0,0.0,86,0.00,SCT,BKN,0.00,0.0,WeatherDisplay:10.37,2013-05-08 15:43:00,
2013-05-08 05:48:00,67.3,62.9,30.00,SE,135,0.0,0.0,86,0.00,SCT,BKN,0.00,0.0,WeatherDisplay:10.37,2013-05-08 15:48:00,
2013-05-08 05:53:00,67.3,62.9,30.00,SE,135,0.0,0.0,86,0.00,SCT,BKN,0.00,0.0,WeatherDisplay:10.37,2013-05-08 15:53:00,
2013-05-08 05:58:00,67.1,62.8,30.00,SE,135,0.0,0.0,86,0.00,SCT,BKN,0.00,0.0,WeatherDisplay:10.37,2013-05-08 15:58:00,
2013-05-08 06:03:00,67.1,62.8,30.00,SE,135,0.0,0.0,86,0.00,SCT,BKN,0.00,0.0,WeatherDisplay:10.37,2013-05-08 16:03:00,
2013-05-08 06:08:00,67.1,63.1,30.00,SE,135,0.0,1.2,87,0.00,SCT,BKN,0.00,0.0,WeatherDisplay:10.37,2013-05-08 16:08:00,
2013-05-08 06:13:00,67.1,62.8,30.00,SE,135,1.6,1.6,86,0.00,SCT,BKN,0.00,0.0,WeatherDisplay:10.37,2013-05-08 16:13:00,
2013-05-08 06:18:00,67.1,62.8,30.00,SE,135,1.4,1.4,86,0.00,SCT,BKN,0.00,0.0,WeatherDisplay:10.37,2013-05-08 16:18:00,
2013-05-08 06:23:00,67.1,62.8,30.00,SE,135,0.0,0.0,86,0.00,SCT,BKN,0.00,0.0,WeatherDisplay:10.37,2013-05-08 16:23:00,
2013-05-08 06:28:00,67.3,63.3,30.00,SE,135,0.0,0.0,87,0.00,SCT,BKN,0.00,0.0,WeatherDisplay:10.37,2013-05-08 16:28:00,
2013-05-08 06:33:00,67.3,63.3,30.00,SE,135,0.0,0.0,87,0.00,SCT,BKN,0.00,0.0,WeatherDisplay:10.37,2013-05-08 16:33:00,
2013-05-08 06:38:00,67.3,62.9,30.00,SE,135,0.0,0.0,86,0.00,SCT,BKN,0.00,0.0,WeatherDisplay:10.37,2013-05-08 16:38:00,
2013-05-08 06:43:00,67.3,63.3,29.97,SE,135,0.0,0.0,87,0.00,SCT,BKN,0.00,0.0,WeatherDisplay:10.37,2013-05-08 16:43:00,
2013-05-08 06:48:00,67.3,62.9,29.97,SE,135,0.0,0.0,86,0.00,SCT,BKN,0.00,0.0,WeatherDisplay:10.37,2013-05-08 16:48:00,
2013-05-08 06:53:00,67.5,63.5,29.97,SE,135,0.0,0.0,87,0.00,SCT,BKN,0.00,0.0,WeatherDisplay:10.37,2013-05-08 16:53:00,
2013-05-08 06:58:00,67.5,63.5,30.00,SE,135,0.0,0.0,87,0.00,SCT,BKN,0.00,0.0,WeatherDisplay:10.37,2013-05-08 16:58:00,
2013-05-08 07:03:00,67.5,63.5,30.00,SE,135,0.0,0.0,87,0.00,SCT,BKN,0.00,0.0,WeatherDisplay:10.37,2013-05-08 17:03:00,
2013-05-08 07:08:00,67.6,63.6,30.00,SE,135,0.0,0.0,87,0.00,SCT,BKN,0.00,0.0,WeatherDisplay:10.37,2013-05-08 17:08:00,
2013-05-08 07:13:00,67.6,63.6,30.00,SE,135,0.0,0.0,87,0.00,SCT,BKN,0.00,0.0,WeatherDisplay:10.37,2013-05-08 17:13:00,
2013-05-08 07:18:00,67.8,63.8,30.00,SE,135,0.0,0.0,87,0.00,SCT,BKN,0.00,0.0,WeatherDisplay:10.37,2013-05-08 17:18:00,
2013-05-08 07:23:00,67.8,63.8,30.00,SE,135,0.0,0.0,87,0.00,SCT,BKN,0.00,0.0,WeatherDisplay:10.37,2013-05-08 17:23:00,
2013-05-08 07:28:00,68.0,64.0,30.03,SE,135,1.2,1.4,87,0.00,SCT,BKN,0.00,0.0,WeatherDisplay:10.37,2013-05-08 17:28:00,
2013-05-08 07:33:00,68.0,64.0,30.03,SE,135,1.2,1.4,87,0.00,SCT,BKN,0.00,0.0,WeatherDisplay:10.37,2013-05-08 17:33:00,
2013-05-08 07:38:00,68.2,64.2,30.03,SE,135,0.0,0.0,87,0.00,SCT,BKN,0.00,0.0,WeatherDisplay:10.37,2013-05-08 17:38:00,
2013-05-08 07:43:00,68.4,64.3,30.03,SE,135,0.0,0.0,87,0.00,SCT,BKN,0.00,0.0,WeatherDisplay:10.37,2013-05-08 17:43:00,
2013-05-08 07:48:00,68.5,64.8,30.03,SE,135,0.0,0.0,88,0.00,SCT,BKN,0.00,0.0,WeatherDisplay:10.37,2013-05-08 17:48:00,
2013-05-08 07:53:00,68.5,64.8,30.03,SE,135,0.0,0.0,88,0.00,SCT,BKN,0.00,0.0,WeatherDisplay:10.37,2013-05-08 17:53:00,
2013-05-08 07:58:00,68.7,64.7,30.03,SE,135,0.0,0.0,87,0.00,SCT,BKN,0.00,0.0,WeatherDisplay:10.37,2013-05-08 17:58:00,
2013-05-08 21:39:00,69.8,63.7,30.06,NE,45,0.0,0.0,81,0.00,SCT,BKN,0.00,0.0,WeatherDisplay:10.37,2013-05-09 07:39:00,
2013-05-08 21:40:00,69.8,63.7,30.06,NE,45,0.0,0.0,81,0.00,SCT,BKN,0.00,0.0,WeatherDisplay:10.37,2013-05-09 07:40:00,
2013-05-08 21:45:00,69.8,63.7,30.06,NE,45,0.0,0.0,81,0.00,SCT,BKN,0.00,0.0,WeatherDisplay:10.37,2013-05-09 07:45:00,
2013-05-08 22:05:00,69.6,64.2,30.06,NE,45,0.0,0.0,83,0.00,SCT,BKN,0.00,0.0,WeatherDisplay:10.37,2013-05-09 08:05:00,
2013-05-08 22:10:00,69.4,63.7,30.06,NE,45,0.0,0.0,82,0.00,SCT,BKN,0.00,0.0,WeatherDisplay:10.37,2013-05-09 08:10:00,
2013-05-08 22:15:00,69.4,64.0,30.06,NE,45,0.0,0.0,83,0.00,SCT,BKN,0.00,0.0,WeatherDisplay:10.37,2013-05-09 08:15:00,
2013-05-08 22:20:00,69.4,64.0,30.06,NE,45,0.0,0.0,83,0.00,SCT,BKN,0.00,0.0,WeatherDisplay:10.37,2013-05-09 08:20:00,
2013-05-08 22:25:00,69.4,64.0,30.06,NE,45,0.0,0.0,83,0.00,SCT,BKN,0.00,0.0,WeatherDisplay:10.37,2013-05-09 08:25:00,
2013-05-08 22:30:00,69.3,64.2,30.06,NE,45,0.0,0.0,84,0.00,SCT,BKN,0.00,0.0,WeatherDisplay:10.37,2013-05-09 08:30:00,
2013-05-08 22:35:00,69.3,64.2,30.06,NE,45,0.0,0.0,84,0.00,SCT,BKN,0.00,0.0,WeatherDisplay:10.37,2013-05-09 08:35:00,
2013-05-08 22:40:00,69.3,63.9,30.06,NE,45,0.0,0.0,83,0.00,SCT,BKN,0.00,0.0,WeatherDisplay:10.37,2013-05-09 08:40:00,
2013-05-08 22:45:00,69.3,64.2,30.06,NE,45,0.0,0.0,84,0.00,SCT,BKN,0.00,0.0,WeatherDisplay:10.37,2013-05-09 08:45:00,
2013-05-08 22:50:00,69.3,64.2,30.06,NE,45,0.0,0.0,84,0.00,SCT,BKN,0.00,0.0,WeatherDisplay:10.37,2013-05-09 08:50:00,
2013-05-08 22:55:00,69.1,64.4,30.06,NE,45,0.0,0.0,85,0.00,SCT,BKN,0.00,0.0,WeatherDisplay:10.37,2013-05-09 08:55:00,
2013-05-08 23:00:00,69.1,64.4,30.06,NE,45,0.0,0.0,85,0.00,SCT,BKN,0.00,0.0,WeatherDisplay:10.37,2013-05-09 09:00:00,
2013-05-08 23:05:00,69.1,64.4,30.06,NE,45,0.0,0.0,85,0.00,SCT,BKN,0.00,0.0,WeatherDisplay:10.37,2013-05-09 09:05:00,
2013-05-08 23:10:00,69.1,64.0,30.06,ENE,68,0.0,0.0,84,0.00,SCT,BKN,0.00,0.0,WeatherDisplay:10.37,2013-05-09 09:10:00,
2013-05-08 23:15:00,69.1,64.0,30.06,ENE,68,0.0,0.0,84,0.00,SCT,BKN,0.00,0.0,WeatherDisplay:10.37,2013-05-09 09:15:00,
2013-05-08 23:20:00,69.1,64.4,30.06,ENE,68,0.0,0.0,85,0.00,SCT,BKN,0.00,0.0,WeatherDisplay:10.37,2013-05-09 09:20:00,
2013-05-08 23:25:00,69.1,64.0,30.06,ENE,68,0.0,0.0,84,0.00,SCT,BKN,0.00,0.0,WeatherDisplay:10.37,2013-05-09 09:25:00,
2013-05-08 23:30:00,69.1,64.4,30.06,ENE,68,0.0,0.0,85,0.00,SCT,BKN,0.00,0.0,WeatherDisplay:10.37,2013-05-09 09:30:00,
2013-05-08 23:35:00,69.1,64.4,30.06,ENE,68,0.0,0.0,85,0.00,SCT,BKN,0.00,0.0,WeatherDisplay:10.37,2013-05-09 09:35:00,
2013-05-08 23:40:00,69.1,64.4,30.06,ENE,68,0.0,0.0,85,0.00,SCT,BKN,0.00,0.0,WeatherDisplay:10.37,2013-05-09 09:40:00,
2013-05-08 23:45:00,68.9,63.9,30.06,ENE,68,0.0,0.0,84,0.00,SCT,BKN,0.00,0.0,WeatherDisplay:10.37,2013-05-09 09:45:00,
2013-05-08 23:50:00,68.9,63.9,30.06,ENE,68,0.0,0.0,84,0.00,SCT,BKN,0.00,0.0,WeatherDisplay:10.37,2013-05-09 09:50:00,
2013-05-08 23:55:00,68.9,64.2,30.06,ENE,68,0.0,0.0,85,0.00,SCT,BKN,0.00,0.0,WeatherDisplay:10.37,2013-05-09 09:55:00,